When you browse on this site, cookies collect data to enhance your experience and personalize the content and advertising you see.
Visit our Privacy Policy to learn more. By continuing to use the site, you agree to this use of cookies and data.
  • In Czech Republic
  • List of Countries
  • For 7 days
  • Water Temperature
  • Weather Map
  • Weather Widgets
  • user-avatar
    Login

    Hourly Weather Osovy

    Today, 7 June, Sunday

    Time Temperature Precipitation Wind Pressure Humidity
    00:00 +14°C° 0 mm 0 mps 746 mmHg 89%
    01:00 +14°C° 0 mm 0 mps 746 mmHg 89%
    02:00 +15°C° 0 mm 1 mps 746 mmHg 90%
    03:00 +15°C° 0 mm 1 mps 746 mmHg 90%
    04:00 +15°C° 0 mm 1 mps 747 mmHg 91%
    05:00 +15°C° 0 mm 1 mps 747 mmHg 91%
    06:00 +17°C° 0 mm 2 mps 747 mmHg 86%
    07:00 +19°C° 0 mm 2 mps 747 mmHg 81%
    08:00 +21°C° 0 mm 2 mps 747 mmHg 77%
    09:00 +22°C° 0 mm 3 mps 747 mmHg 74%
    10:00 +24°C° 0 mm 3 mps 747 mmHg 71%
    11:00 +25°C° 0 mm 3 mps 747 mmHg 69%
    12:00 +25°C° 0.2 mm 3 mps 747 mmHg 70%
    13:00 +25°C° 0.2 mm 4 mps 747 mmHg 70%
    14:00 +26°C° 0.2 mm 4 mps 747 mmHg 71%
    15:00 +26°C° 1 mm 4 mps 747 mmHg 74%
    16:00 +25°C° 1 mm 3 mps 746 mmHg 77%
    17:00 +25°C° 1 mm 3 mps 746 mmHg 80%
    18:00 +24°C° 0.5 mm 3 mps 746 mmHg 83%
    19:00 +22°C° 0.5 mm 3 mps 746 mmHg 85%
    20:00 +21°C° 0.5 mm 3 mps 746 mmHg 88%
    21:00 +20°C° 0 mm 3 mps 746 mmHg 89%
    22:00 +19°C° 0 mm 3 mps 746 mmHg 91%
    23:00 +18°C° 0 mm 3 mps 746 mmHg 92%

    Tomorrow, 8 June, Monday

    Time Temperature Precipitation Wind Pressure Humidity
    00:00 +17°C° 0 mm 3 mps 746 mmHg 93%
    01:00 +17°C° 0 mm 3 mps 746 mmHg 94%
    02:00 +17°C° 0 mm 3 mps 746 mmHg 95%
    03:00 +17°C° 0 mm 3 mps 746 mmHg 96%
    04:00 +17°C° 0 mm 3 mps 746 mmHg 96%
    05:00 +17°C° 0 mm 3 mps 746 mmHg 96%
    06:00 +19°C° 0 mm 3 mps 746 mmHg 91%
    07:00 +20°C° 0 mm 3 mps 746 mmHg 87%
    08:00 +22°C° 0 mm 4 mps 747 mmHg 82%
    09:00 +25°C° 0 mm 4 mps 747 mmHg 75%
    10:00 +26°C° 0 mm 4 mps 747 mmHg 68%
    11:00 +27°C° 0 mm 4 mps 747 mmHg 62%
    12:00 +28°C° 0 mm 4 mps 747 mmHg 60%
    13:00 +28°C° 0 mm 4 mps 747 mmHg 58%
    14:00 +29°C° 0 mm 4 mps 746 mmHg 56%
    15:00 +28°C° 0 mm 4 mps 746 mmHg 59%
    16:00 +28°C° 0 mm 4 mps 746 mmHg 63%
    17:00 +28°C° 0 mm 3 mps 746 mmHg 66%
    18:00 +26°C° 0.1 mm 3 mps 746 mmHg 72%
    19:00 +24°C° 0.1 mm 3 mps 746 mmHg 79%
    20:00 +21°C° 0.1 mm 2 mps 746 mmHg 85%
    21:00 +21°C° 0 mm 2 mps 746 mmHg 88%
    22:00 +20°C° 0 mm 2 mps 746 mmHg 90%
    23:00 +19°C° 0 mm 2 mps 747 mmHg 92%

    Day after tomorrow, 9 June, Tuesday

    Time Temperature Precipitation Wind Pressure Humidity
    00:00 +19°C° 0 mm 2 mps 747 mmHg 93%
    01:00 +18°C° 0 mm 2 mps 747 mmHg 94%
    02:00 +18°C° 0 mm 2 mps 747 mmHg 95%
    03:00 +18°C° 0 mm 2 mps 747 mmHg 95%
    04:00 +18°C° 0 mm 2 mps 747 mmHg 95%
    05:00 +18°C° 0 mm 3 mps 747 mmHg 95%
    06:00 +20°C° 0 mm 3 mps 747 mmHg 90%
    07:00 +21°C° 0 mm 3 mps 747 mmHg 84%
    08:00 +24°C° 0 mm 3 mps 747 mmHg 79%
    09:00 +25°C° 0 mm 4 mps 747 mmHg 72%
    10:00 +27°C° 0 mm 4 mps 747 mmHg 66%
    11:00 +28°C° 0 mm 5 mps 747 mmHg 60%
    12:00 +29°C° 0 mm 5 mps 747 mmHg 58%
    13:00 +29°C° 0 mm 5 mps 747 mmHg 57%
    14:00 +29°C° 0 mm 5 mps 747 mmHg 56%
    15:00 +29°C° 0 mm 4 mps 747 mmHg 58%
    16:00 +29°C° 0 mm 4 mps 746 mmHg 61%
    17:00 +29°C° 0 mm 3 mps 746 mmHg 64%
    18:00 +27°C° 0 mm 3 mps 746 mmHg 69%
    19:00 +25°C° 0 mm 3 mps 746 mmHg 75%
    20:00 +23°C° 0 mm 2 mps 747 mmHg 80%
    21:00 +23°C° 0 mm 2 mps 747 mmHg 83%
    22:00 +21°C° 0 mm 2 mps 747 mmHg 86%
    23:00 +20°C° 0 mm 2 mps 747 mmHg 89%

    10 June, Wednesday

    Time Temperature Precipitation Wind Pressure Humidity
    00:00 +20°C° 0 mm 3 mps 747 mmHg 91%
    01:00 +19°C° 0 mm 3 mps 747 mmHg 92%
    02:00 +19°C° 0 mm 3 mps 747 mmHg 94%
    03:00 +19°C° 0 mm 3 mps 747 mmHg 93%
    04:00 +19°C° 0 mm 3 mps 747 mmHg 93%
    05:00 +19°C° 0 mm 3 mps 747 mmHg 92%
    06:00 +21°C° 0 mm 3 mps 747 mmHg 87%
    07:00 +22°C° 0 mm 4 mps 747 mmHg 82%
    08:00 +25°C° 0 mm 4 mps 747 mmHg 77%
    09:00 +26°C° 0 mm 4 mps 747 mmHg 71%
    10:00 +28°C° 0 mm 5 mps 747 mmHg 65%
    11:00 +29°C° 0 mm 5 mps 747 mmHg 59%
    12:00 +29°C° 0 mm 5 mps 746 mmHg 58%
    13:00 +30°C° 0 mm 5 mps 746 mmHg 57%
    14:00 +30°C° 0 mm 5 mps 746 mmHg 56%
    15:00 +30°C° 0 mm 5 mps 746 mmHg 58%
    16:00 +30°C° 0 mm 4 mps 746 mmHg 60%
    17:00 +29°C° 0 mm 4 mps 746 mmHg 62%
    18:00 +28°C° 0 mm 3 mps 746 mmHg 68%
    19:00 +26°C° 0 mm 3 mps 746 mmHg 75%
    20:00 +24°C° 0 mm 3 mps 746 mmHg 81%
    21:00 +22°C° 0 mm 3 mps 746 mmHg 84%
    22:00 +21°C° 0 mm 3 mps 746 mmHg 88%
    23:00 +20°C° 0 mm 2 mps 746 mmHg 91%

    11 June, Thursday

    Time Temperature Precipitation Wind Pressure Humidity
    00:00 +20°C° 0 mm 2 mps 746 mmHg 92%
    01:00 +20°C° 0 mm 3 mps 746 mmHg 94%
    02:00 +20°C° 0 mm 3 mps 746 mmHg 95%
    03:00 +20°C° 0 mm 2 mps 746 mmHg 95%
    04:00 +20°C° 0 mm 2 mps 746 mmHg 95%
    05:00 +20°C° 0 mm 2 mps 746 mmHg 94%
    06:00 +21°C° 0 mm 3 mps 746 mmHg 89%
    07:00 +24°C° 0 mm 3 mps 746 mmHg 83%
    08:00 +26°C° 0 mm 3 mps 746 mmHg 78%
    09:00 +27°C° 0 mm 4 mps 746 mmHg 72%
    10:00 +28°C° 0 mm 4 mps 746 mmHg 66%
    11:00 +30°C° 0 mm 4 mps 746 mmHg 61%
    12:00 +30°C° 0.1 mm 4 mps 746 mmHg 59%
    13:00 +30°C° 0.1 mm 4 mps 746 mmHg 58%
    14:00 +30°C° 0.1 mm 5 mps 745 mmHg 57%
    15:00 +30°C° 0.1 mm 4 mps 745 mmHg 60%
    16:00 +30°C° 0.1 mm 4 mps 745 mmHg 62%
    17:00 +29°C° 0.1 mm 3 mps 745 mmHg 65%
    18:00 +28°C° 0 mm 3 mps 745 mmHg 71%
    19:00 +26°C° 0 mm 3 mps 745 mmHg 78%
    20:00 +24°C° 0 mm 2 mps 745 mmHg 84%
    21:00 +24°C° 0.1 mm 2 mps 745 mmHg 87%
    22:00 +23°C° 0.1 mm 2 mps 745 mmHg 91%
    23:00 +21°C° 0.1 mm 2 mps 745 mmHg 94%

    12 June, Friday

    Time Temperature Precipitation Wind Pressure Humidity
    00:00 +20°C° 0 mm 2 mps 745 mmHg 94%
    01:00 +20°C° 0 mm 2 mps 745 mmHg 95%
    02:00 +20°C° 0 mm 2 mps 745 mmHg 96%
    03:00 +20°C° 0 mm 2 mps 745 mmHg 96%
    04:00 +20°C° 0 mm 2 mps 745 mmHg 96%
    05:00 +20°C° 0 mm 2 mps 745 mmHg 96%
    06:00 +22°C° 0 mm 3 mps 745 mmHg 92%
    07:00 +24°C° 0 mm 3 mps 745 mmHg 87%
    08:00 +26°C° 0 mm 3 mps 745 mmHg 82%
    09:00 +27°C° 0 mm 3 mps 745 mmHg 75%
    10:00 +28°C° 0 mm 4 mps 745 mmHg 67%
    11:00 +30°C° 0 mm 4 mps 745 mmHg 60%
    12:00 +30°C° 0 mm 4 mps 745 mmHg 58%
    13:00 +32°C° 0 mm 4 mps 744 mmHg 56%
    14:00 +32°C° 0 mm 4 mps 744 mmHg 54%
    15:00 +32°C° 0 mm 4 mps 744 mmHg 56%
    16:00 +32°C° 0 mm 4 mps 744 mmHg 59%
    17:00 +30°C° 0 mm 3 mps 744 mmHg 62%
    18:00 +29°C° 0.1 mm 3 mps 744 mmHg 69%
    19:00 +27°C° 0.1 mm 3 mps 744 mmHg 76%
    20:00 +25°C° 0.1 mm 3 mps 744 mmHg 83%
    21:00 +24°C° 0 mm 3 mps 744 mmHg 86%
    22:00 +22°C° 0 mm 3 mps 744 mmHg 88%
    23:00 +21°C° 0 mm 3 mps 744 mmHg 91%
    Show more